RADUGA 28 [-]

Last updated on Tue Jun 27 2023 00:03:02 GMT+0000 (Coordinated Universal Time)

1 21821U 91087A 23177.02896580 .00000130 00000+0 00000+0 0 9999 2 21821 14.1725 349.1468 0009204 132.5101 192.9877 1.00264618115456

Satellite not in orbit

RADUGA 28 [-]